Regional Weather Roundup
Issued by NWS

Home | Current Version | Previous Version | Text Only | Print | Product List | Glossary On
Versions: 1 2 3 4 5 6 7 8 9 10 11 12 13 14 15 16 17 18 19 20 21 22 23 24 25 26 27 28 29 30 31 32 33 34 35 36 37 38 39 40 41 42 43 44 45 46 47 48 49 50
000
ASUS43 KDMX 270407
RWRIA

WEATHER ROUNDUP FOR IOWA
NATIONAL WEATHER SERVICE DES MOINES IA
1100 PM CDT THU MAR 26 2015

NOTE: "FAIR" INDICATES FEW OR NO CLOUDS BELOW 12,000 FEET WITH NO
SIGNIFICANT WEATHER AND/OR OBSTRUCTIONS TO VISIBILITY.

* - THESE STATIONS ARE NOT NWS STATIONS...THUS NOT UNDER NWS
QUALITY CONTROL.  THEY ALSO DO NOT REPORT WEATHER SUCH
AS PRECIPITATION OR FOG.

IAZ001>003-012>014-020>022-031>034-043>046-270500-
   NORTHWEST IOWA

CITY           SKY/WX    TMP DP  RH WIND       PRES   REMARKS
CARROLL *      CLOUDY    30  21  69 N9        30.19S WCI  22
CHEROKEE *     CLEAR     28  19  69 N8        30.23R WCI  20
DENISON *      CLOUDY    32  27  80 NE3G12    30.18S
LE MARS *      PTCLDY    28  21  74 N7        30.24R WCI  21
ORANGE CITY *  CLEAR     28  19  69 N7        30.22S WCI  21
SHELDON *      CLEAR     23  19  86 N8        30.21S WCI  14
SIOUX CITY     MOCLDY    34  21  59 NE13      30.23R WCI  25
SPENCER        CLEAR     25  17  72 N8        30.21R WCI  16
STORM LAKE *   PTCLDY    27  19  74 N13       30.21R WCI  16
$$

IAZ055>058-069>071-079>083-090>094-270500-
   SOUTHWEST IOWA

CITY           SKY/WX    TMP DP  RH WIND       PRES   REMARKS
ATLANTIC *     CLOUDY    32  32 100 N5        30.18S WCI  27
AUDUBON *      CLEAR     30  25  80 N6        30.19R WCI  24
CLARINDA *     MOCLDY    34  34 100 N7        30.20R WCI  28
COUNCIL BLFS * MOCLDY    32  32 100 NW9       30.19S WCI  24
CRESTON *      CLOUDY    34  34 100 N7        30.16S WCI  28
HARLAN  *      MOCLDY    30  30 100 N7        30.22R WCI  23
LAMONI         CLOUDY    35  32  88 N8        30.14S WCI  29
RED OAK *      CLOUDY    34  34 100 N5        30.19S WCI  30
SHENANDOAH *   MOCLDY    34  34 100 N6        30.20S WCI  29
$$

IAZ047>049-059>061-072>074-084-270500-
   CENTRAL IOWA

CITY           SKY/WX    TMP DP  RH WIND       PRES   REMARKS
AMES           PTCLDY    30  20  66 N13       30.18R WCI  20
ANKENY *       CLOUDY    34  21  60 N14G22    30.18R WCI  24
CHARITON *     CLOUDY    36  25  64 N10       30.15S WCI  28
DES MOINES     CLOUDY    35  22  58 N15       30.18R WCI  25
GRINNELL*      CLOUDY    32  23  69 N12       30.16R WCI  23
KNOXVILLE *    CLOUDY    36  23  60 N9        30.15R WCI  29
MARSHALLTOWN   CLOUDY    32  22  66 N12       30.16R WCI  23
PELLA *        CLOUDY    36  27  69 N12G18    30.17R WCI  27
PERRY *        CLOUDY    32  25  74 N9        30.19R WCI  24
$$

IAZ004>006-015-016-023>025-035-036-270500-
   NORTH CENTRAL IOWA

CITY           SKY/WX    TMP DP  RH WIND       PRES   REMARKS
ALGONA *       CLOUDY    30  19  64 N15       30.19S WCI  19
CLARION *      CLOUDY    30  21  69 N16       30.18S WCI  19
ESTHERVILLE    MOCLDY    26  17  68 N13       30.20R WCI  15
FORT DODGE *   CLOUDY    30  18  59 N9        30.19S WCI  22
MASON CITY     CLOUDY    30  19  63 N15       30.18R WCI  19
FOREST CITY *  CLOUDY    28  19  69 NW10      30.18R WCI  19
IOWA FALLS *   CLOUDY    30  21  69 N14       30.18S WCI  20
$$

IAZ007>011-017>019-026>030-037>042-050>054-066-270500-
   NORTHEAST IOWA

CITY           SKY/WX    TMP DP  RH WIND       PRES   REMARKS
CEDAR RAPIDS   PTCLDY    27  20  75 NW8       30.14R WCI  19
CHARLES CITY * CLOUDY    30  25  80 NW10      30.16R WCI  21
CLINTON *      CLOUDY    30  21  69 NW5       30.14R WCI  25
DECORAH *      CLOUDY    30  21  69 N7        30.12S WCI  23
DUBUQUE        CLOUDY    30  20  66 N10       30.10R WCI  21
MONTICELLO *   CLOUDY    28  23  80 NW8       30.13R WCI  20
OELWEIN *      CLOUDY    30  23  74 NW12      30.14R WCI  21
WATERLOO       CLOUDY    30  22  72 N5        30.15S WCI  25
$$

IAZ064-065-067-068-078-270500-
   EAST CENTRAL IOWA

CITY           SKY/WX    TMP DP  RH WIND       PRES   REMARKS
DAVENPORT      PTCLDY    27  21  78 NW7       30.13R WCI  19
IOWA CITY      PTCLDY    32  19  58 N9        30.16R WCI  24
MT. PLEASANT * CLOUDY    32  23  69 N10       30.15R WCI  24
MUSCATINE *    MOCLDY    28  23  80 N8        30.15S WCI  20
QUAD CITIES    PTCLDY    31  20  63 NW7       30.12R WCI  24
$$

IAZ062-063-075>077-085>089-095>099-270500-
   SOUTHEAST IOWA

CITY           SKY/WX    TMP DP  RH WIND       PRES   REMARKS
BURLINGTON     CLOUDY    34  23  64 N13       30.13R WCI  25
FAIRFIELD *    CLOUDY    34  23  64 N12       30.15R WCI  25
FORT MADISON * CLOUDY    34  25  69 N12       30.14R WCI  25
KEOKUK *       CLOUDY    37  25  60 N13       30.12R WCI  29
OSKALOOSA *    CLOUDY    34  25  69 NE13G18   30.15R WCI  25
CENTERVILLE *  MOCLDY    36  27  69 N12       30.15S WCI  27
OTTUMWA        CLOUDY    34  23  64 N12       30.14R WCI  25
WASHINGTON *   CLOUDY    34  25  69 N10       30.15R WCI  26
$$

ABBREVIATIONS USED IN REMARKS
   TC - TEMPERATURES IN CELSIUS
  WCI - WIND CHILL INDEX
   HX - HEAT INDEX
  VSB - VISIBILITY
$$



USA.gov is the U.S. government's official web portal to all federal, state and local government web resources and services.